| Date | Temp | Humidity | Rainfall | Dew Point | Wind Direction | Wind Speed | Wind Pressure | Condition | Visibility |
|---|---|---|---|---|---|---|---|---|---|
| 2025-05-24 09:59:55 | 32 | 67 | 0.00 | 25 | 080 | 5.7 | 1009 | Partly Cloudy (Day) | 15KM |
| 2025-05-24 09:02:43 | 31 | 71 | 0.00 | 25 | 050 | 7.6 | 1009 | Partly Cloudy (Day) | 15KM |
| 2025-05-24 07:59:45 | 29 | 80 | 0.0 | 25 | 080 | 3.8 | 1009 | Partly Cloudy (Day) | 20 KM |
| 2025-05-24 06:57:57 | 27 | 91 | 0.0 | 25 | 230 | 3.8 | 1008 | Partly Cloudy (Day) | 3.8 |
| 2025-05-24 05:58:08 | 26 | 95 | 0.0 | 25 | 130 | 1.9 | 1008 | Partly Cloudy (Day) | 10 KM |
| 2025-05-24 04:58:36 | 26 | 93 | 0.0 | 25 | 220 | 1.9 | 1007 | Partly Cloudy (Day) | 10 KM |
| 2025-05-24 03:57:34 | 26 | 93 | 0.0 | 25 | 160 | 5.7 | 1007 | Partly Cloudy (Night) | 10 KM |
| 2025-05-24 02:57:44 | 26 | 93 | 0.0 | 25 | 150 | 1.9 | 1007 | Partly Cloudy (Night) | 10 KM |
| 2025-05-24 01:59:12 | 27 | 93 | 0.0 | 25 | 220 | 1.0 | 1008 | Partly Cloudy (Night) | 10 KM |
| 2025-05-24 00:58:49 | 27 | 92 | 0.0 | 25 | 260 | 1.0 | 1008 | Partly Cloudy (Night) | 10 KM |
| 2025-05-23 23:57:44 | 27 | 89 | 0.0 | 25 | 210 | 3.0 | 1009 | Partly Cloudy (Night) | 10 KM |
| 2025-05-23 22:59:49 | 27 | 90 | 0.0 | 25 | 130 | 1.0 | 1009 | Partly Cloudy (Night) | 10 KM |
| 2025-05-23 21:57:59 | 27 | 82 | 0.0 | 25 | 180 | 1.0 | 1008 | Partly Cloudy (Night) | 10 KM |
| 2025-05-23 21:00:57 | 28 | 86 | 0.0 | 25 | 100 | 3.8 | 1008 | Partly Cloudy (Night) | 10 KM |
| 2025-05-23 20:03:29 | 29 | 78 | 0.0 | 25 | 010 | 3.8 | 1007 | Partly Cloudy (Night) | 10 KM |
| 2025-05-23 18:59:41 | 30 | 75 | 0.0 | 25 | 350 | 3.8 | 1006 | Partly Cloudy (Night) | 10 KM |
| 2025-05-23 18:02:24 | 31 | 71 | 0.0 | 25 | 330 | 9.5 | 1005 | Partly Cloudy (Day) | 10 KM |
| 2025-05-23 17:04:19 | 30 | 75 | 0.0 | 25 | 340 | 9.5 | 1005 | Partly Cloudy (Day) | 15 KM |
| 2025-05-23 16:02:54 | 30 | 71 | 0.0 | 24 | 340 | 9.5 | 1005 | Distant showers | 10 KM |
| 2025-05-23 15:01:25 | 31 | 66 | 0.0 | 24 | 070 | 7.6 | 1005 | Thunderstorm | 10 KM |
| 2025-05-23 14:08:01 | 32 | 65 | 0.0 | 25 | 320 | 17.1 | 1005 | Distant showers | 10 KM |
| 2025-05-23 13:04:02 | 32 | 64 | 0.0 | 24 | 360 | 7.6 | 1006 | Partly Cloudy (Day) | 20 KM |
| 2025-05-23 11:59:33 | 32 | 65 | 0 | 25 | 340 | 9.5 | 1008 | Cloudy | 20 KM |
| 2025-05-23 10:59:14 | 31 | 67 | 0 | 25 | 320 | 3.8 | 1008 | Cloudy | 20 KM |
| 2025-05-23 09:59:15 | 31 | 66 | 0.0 | 24 | 210 | 5.7 | 1008 | Partly Cloudy (Day) | 20 KM |